When you browse on this site, cookies collect data to enhance your experience and personalize the content and advertising you see.
Visit our Privacy Policy to learn more. By continuing to use the site, you agree to this use of cookies and data.
  • In Deutschland
  • Länderverzeichnis
  • Für 7 Tage
  • Wassertemperatur
  • Satellitenkarten
  • Wetterkarte
  • Widgets
  • user-avatar
    Anmelden

    Stündliche Wetter Demyahi

    Heute, 19 Februar, Dienstag

    Zeit Temperatur Niederschläge Wind Luftdruck Luftfeuchtigkeit
    00:00 -8°C° 0 mm 2 m/S 748 mmHg 90%
    01:00 -8°C° 0 mm 2 m/S 748 mmHg 91%
    02:00 -8°C° 0 mm 2 m/S 747 mmHg 91%
    03:00 -8°C° 0 mm 2 m/S 747 mmHg 89%
    04:00 -9°C° 0 mm 3 m/S 746 mmHg 87%
    05:00 -8°C° 0 mm 3 m/S 746 mmHg 85%
    06:00 -9°C° 0 mm 4 m/S 745 mmHg 83%
    07:00 -9°C° 0 mm 4 m/S 745 mmHg 81%
    08:00 -8°C° 0 mm 4 m/S 745 mmHg 79%
    09:00 -7°C° 0 mm 5 m/S 744 mmHg 77%
    10:00 -5°C° 0 mm 5 m/S 744 mmHg 74%
    11:00 -4°C° 0 mm 5 m/S 743 mmHg 72%
    12:00 -2°C° 0 mm 5 m/S 743 mmHg 73%
    13:00 -2°C° 0 mm 5 m/S 742 mmHg 74%
    14:00 +1°C° 0 mm 3 m/S 742 mmHg 78%
    15:00 -1°C° 0 mm 4 m/S 741 mmHg 80%
    16:00 -2°C° 0 mm 4 m/S 740 mmHg 81%
    17:00 -2°C° 0 mm 4 m/S 739 mmHg 82%
    18:00 -2°C° 0 mm 5 m/S 739 mmHg 84%
    19:00 -2°C° 0 mm 5 m/S 738 mmHg 87%
    20:00 -2°C° 0 mm 5 m/S 738 mmHg 89%
    21:00 -2°C° 0 mm 5 m/S 737 mmHg 90%
    22:00 -1°C° 0 mm 5 m/S 736 mmHg 90%
    23:00 0°C° 0 mm 5 m/S 735 mmHg 91%

    Morgen, 20 Februar, Mittwoch

    Zeit Temperatur Niederschläge Wind Luftdruck Luftfeuchtigkeit
    00:00 0°C° 0 mm 5 m/S 735 mmHg 92%
    01:00 0°C° 0 mm 5 m/S 734 mmHg 93%
    02:00 0°C° 0 mm 4 m/S 734 mmHg 93%
    03:00 0°C° 0.1 mm 4 m/S 733 mmHg 93%
    04:00 0°C° 0.1 mm 4 m/S 733 mmHg 93%
    05:00 0°C° 0.1 mm 4 m/S 733 mmHg 93%
    06:00 0°C° 0.1 mm 4 m/S 732 mmHg 93%
    07:00 -1°C° 0.1 mm 4 m/S 732 mmHg 93%
    08:00 -1°C° 0.1 mm 4 m/S 732 mmHg 94%
    09:00 0°C° 0.1 mm 4 m/S 732 mmHg 93%
    10:00 0°C° 0.1 mm 4 m/S 732 mmHg 93%
    11:00 0°C° 0.1 mm 4 m/S 732 mmHg 93%
    12:00 0°C° 0.1 mm 4 m/S 732 mmHg 92%
    13:00 0°C° 0.1 mm 4 m/S 731 mmHg 92%
    14:00 0°C° 0.1 mm 4 m/S 731 mmHg 91%
    15:00 0°C° 0.2 mm 4 m/S 731 mmHg 90%
    16:00 0°C° 0.2 mm 5 m/S 731 mmHg 90%
    17:00 0°C° 0.2 mm 5 m/S 730 mmHg 89%
    18:00 0°C° 0.3 mm 5 m/S 730 mmHg 88%
    19:00 0°C° 0.3 mm 5 m/S 730 mmHg 87%
    20:00 -1°C° 0.3 mm 5 m/S 730 mmHg 86%
    21:00 -2°C° 0.1 mm 5 m/S 730 mmHg 84%
    22:00 -4°C° 0.1 mm 5 m/S 730 mmHg 82%
    23:00 -5°C° 0.1 mm 4 m/S 730 mmHg 80%

    übermorgen, 21 Februar, Donnerstag

    Zeit Temperatur Niederschläge Wind Luftdruck Luftfeuchtigkeit
    00:00 -6°C° 0.2 mm 5 m/S 731 mmHg 81%
    01:00 -6°C° 0.2 mm 5 m/S 731 mmHg 82%
    02:00 -6°C° 0.2 mm 6 m/S 732 mmHg 82%
    03:00 -6°C° 0.2 mm 6 m/S 732 mmHg 83%
    04:00 -8°C° 0.2 mm 6 m/S 732 mmHg 83%
    05:00 -8°C° 0.2 mm 6 m/S 732 mmHg 83%
    06:00 -8°C° 0.1 mm 6 m/S 733 mmHg 82%
    07:00 -8°C° 0.1 mm 6 m/S 733 mmHg 81%
    08:00 -9°C° 0.1 mm 6 m/S 734 mmHg 80%
    09:00 -8°C° 0.1 mm 6 m/S 734 mmHg 79%
    10:00 -8°C° 0.1 mm 7 m/S 735 mmHg 77%
    11:00 -8°C° 0.1 mm 7 m/S 736 mmHg 76%
    12:00 -8°C° 0.1 mm 7 m/S 736 mmHg 76%
    13:00 -8°C° 0.1 mm 6 m/S 737 mmHg 75%
    14:00 -8°C° 0.1 mm 6 m/S 738 mmHg 75%
    15:00 -9°C° 0.1 mm 6 m/S 738 mmHg 75%
    16:00 -10°C° 0.1 mm 6 m/S 739 mmHg 75%
    17:00 -11°C° 0.1 mm 5 m/S 740 mmHg 75%
    18:00 -11°C° 0 mm 5 m/S 740 mmHg 76%
    19:00 -12°C° 0 mm 5 m/S 741 mmHg 76%
    20:00 -13°C° 0 mm 5 m/S 742 mmHg 76%
    21:00 -13°C° 0 mm 5 m/S 742 mmHg 77%
    22:00 -12°C° 0 mm 4 m/S 743 mmHg 77%
    23:00 -14°C° 0 mm 4 m/S 743 mmHg 77%

    22 Februar, Freitag

    Zeit Temperatur Niederschläge Wind Luftdruck Luftfeuchtigkeit
    00:00 -14°C° 0 mm 4 m/S 744 mmHg 78%
    01:00 -14°C° 0 mm 4 m/S 744 mmHg 78%
    02:00 -15°C° 0 mm 4 m/S 745 mmHg 78%
    03:00 -15°C° 0 mm 4 m/S 745 mmHg 78%
    04:00 -15°C° 0 mm 5 m/S 746 mmHg 78%
    05:00 -15°C° 0 mm 5 m/S 746 mmHg 78%
    06:00 -15°C° 0 mm 5 m/S 747 mmHg 77%
    07:00 -15°C° 0 mm 5 m/S 747 mmHg 77%
    08:00 -15°C° 0 mm 5 m/S 748 mmHg 76%
    09:00 -15°C° 0 mm 6 m/S 748 mmHg 72%
    10:00 -14°C° 0 mm 6 m/S 748 mmHg 68%
    11:00 -13°C° 0 mm 7 m/S 749 mmHg 65%
    12:00 -13°C° 0 mm 7 m/S 749 mmHg 64%
    13:00 -12°C° 0 mm 7 m/S 749 mmHg 64%
    14:00 -12°C° 0 mm 7 m/S 749 mmHg 63%
    15:00 -12°C° 0 mm 7 m/S 749 mmHg 65%
    16:00 -12°C° 0 mm 6 m/S 750 mmHg 67%
    17:00 -12°C° 0 mm 5 m/S 750 mmHg 68%
    18:00 -13°C° 0 mm 5 m/S 750 mmHg 71%
    19:00 -13°C° 0 mm 5 m/S 751 mmHg 74%
    20:00 -14°C° 0 mm 5 m/S 752 mmHg 76%
    21:00 -14°C° 0 mm 5 m/S 752 mmHg 77%
    22:00 -15°C° 0 mm 4 m/S 752 mmHg 79%
    23:00 -15°C° 0 mm 4 m/S 753 mmHg 80%

    23 Februar, Samstag

    Zeit Temperatur Niederschläge Wind Luftdruck Luftfeuchtigkeit
    00:00 -15°C° 0 mm 4 m/S 753 mmHg 81%
    01:00 -16°C° 0 mm 4 m/S 753 mmHg 82%
    02:00 -16°C° 0 mm 4 m/S 754 mmHg 83%
    03:00 -16°C° 0 mm 4 m/S 754 mmHg 84%
    04:00 -15°C° 0 mm 3 m/S 754 mmHg 85%
    05:00 -16°C° 0 mm 3 m/S 754 mmHg 86%
    06:00 -16°C° 0 mm 3 m/S 755 mmHg 87%
    07:00 -16°C° 0 mm 3 m/S 755 mmHg 88%
    08:00 -16°C° 0 mm 3 m/S 755 mmHg 88%
    09:00 -15°C° 0 mm 3 m/S 755 mmHg 85%
    10:00 -14°C° 0 mm 3 m/S 755 mmHg 81%
    11:00 -13°C° 0 mm 3 m/S 755 mmHg 77%
    12:00 -12°C° 0 mm 3 m/S 755 mmHg 75%
    13:00 -9°C° 0 mm 2 m/S 755 mmHg 72%
    14:00 -8°C° 0 mm 2 m/S 754 mmHg 69%
    15:00 -9°C° 0 mm 2 m/S 754 mmHg 72%
    16:00 -9°C° 0 mm 2 m/S 754 mmHg 75%
    17:00 -10°C° 0 mm 2 m/S 754 mmHg 79%
    18:00 -9°C° 0 mm 1 m/S 754 mmHg 81%
    19:00 -9°C° 0 mm 1 m/S 754 mmHg 83%
    20:00 -9°C° 0 mm 1 m/S 754 mmHg 85%
    21:00 -9°C° 0 mm 1 m/S 754 mmHg 84%
    22:00 -9°C° 0 mm 1 m/S 754 mmHg 84%
    23:00 -9°C° 0 mm 0 m/S 754 mmHg 84%

    24 Februar, Sonntag

    Zeit Temperatur Niederschläge Wind Luftdruck Luftfeuchtigkeit
    00:00 -9°C° 0 mm 0 m/S 754 mmHg 84%
    01:00 -9°C° 0 mm 0 m/S 754 mmHg 83%
    02:00 -9°C° 0 mm 0 m/S 754 mmHg 83%
    03:00 -9°C° 0 mm 0 m/S 754 mmHg 84%
    04:00 -9°C° 0 mm 0 m/S 754 mmHg 84%
    05:00 -9°C° 0 mm 0 m/S 754 mmHg 84%
    06:00 -9°C° 0 mm 0 m/S 755 mmHg 84%
    07:00 -8°C° 0 mm 0 m/S 755 mmHg 84%
    08:00 -8°C° 0 mm 0 m/S 755 mmHg 85%
    09:00 -7°C° 0 mm 0 m/S 755 mmHg 83%
    10:00 -6°C° 0 mm 0 m/S 756 mmHg 81%
    11:00 -3°C° 0 mm 1 m/S 756 mmHg 79%
    12:00 -3°C° 0 mm 1 m/S 756 mmHg 80%
    13:00 -2°C° 0 mm 1 m/S 756 mmHg 80%
    14:00 -2°C° 0 mm 1 m/S 756 mmHg 80%
    15:00 -2°C° 0 mm 1 m/S 756 mmHg 83%
    16:00 -2°C° 0 mm 1 m/S 756 mmHg 85%
    17:00 -3°C° 0 mm 1 m/S 756 mmHg 88%
    18:00 -3°C° 0 mm 1 m/S 756 mmHg 89%
    19:00 -3°C° 0 mm 1 m/S 756 mmHg 91%
    20:00 -3°C° 0 mm 1 m/S 756 mmHg 92%
    21:00 -3°C° 0 mm 1 m/S 756 mmHg 93%
    22:00 -3°C° 0 mm 1 m/S 756 mmHg 93%
    23:00 -3°C° 0 mm 1 m/S 756 mmHg 93%
    Mehr zeigen